This demonstration page uses our WeatherBlox Daily Observations layout. Learn more.

Left ArrowRight Arrow

Hourly Observations for February 14, 2015

Temp ( °F °C ) Dew Point ( °F °C ) Humidity (%) Winds ( mph kmh ) Pressure ( in mb ) Visibility ( mi km ) Precip ( " mm )
12:53 am 00:53 Clear 44 6.7 36 2.2 73 73 N 6 9 30.20 1023 10 16 0.00 0.00
1:53 am 01:53 Clear 42 5.6 35 1.7 76 76 N 6 9 30.20 1023 10 16 0.00 0.00
2:53 am 02:53 Clear 41 5 34 1.1 76 76 N 6 9 30.21 1023 10 16 0.00 0.00
3:53 am 03:53 Clear 41 5 35 1.7 79 79 Calm 30.20 1023 10 16 0.00 0.00
4:53 am 04:53 Clear 40 4.4 34 1.1 79 79 NNE 6 9 30.19 1022 10 16 0.00 0.00
5:53 am 05:53 Clear 39 3.9 35 1.7 86 86 N 5 7 30.19 1022 10 16 0.00 0.00
6:53 am 06:53 Clear 38 3.3 34 1.1 86 86 NNW 6 9 30.21 1023 10 16 0.00 0.00
7:53 am 07:53 Sunny 38 3.3 34 1.1 86 86 NNW 5 7 30.23 1024 10 16 0.00 0.00
8:53 am 08:53 Sunny 46 7.8 38 3.3 73 73 N 5 7 30.23 1024 10 16 0.00 0.00
9:53 am 09:53 Sunny 54 12.2 42 5.6 64 64 Calm 30.22 1023 10 16 0.00 0.00
10:53 am 10:53 Sunny 59 15 44 6.7 58 58 Calm 30.21 1023 10 16 0.00 0.00
11:53 am 11:53 Sunny 64 17.8 45 7.2 50 50 SSE 3 6 30.19 1023 10 16 0.00 0.00
12:53 pm 12:53 Sunny 67 19.4 45 7.2 45 45 S 7 11 30.15 1021 10 16 0.00 0.00
1:53 pm 13:53 Sunny 69 20.6 44 6.7 41 41 S 9 15 30.11 1020 10 16 0.00 0.00
2:53 pm 14:53 Sunny 70 21.1 44 6.7 39 39 SSE 7 11 30.08 1019 10 16 0.00 0.00
3:53 pm 15:53 Sunny 71 21.7 43 6.1 36 36 S 7 11 30.06 1018 10 16 0.00 0.00
4:53 pm 16:53 Sunny 71 21.7 43 6.1 36 36 S 12 19 30.06 1018 10 16 0.00 0.00
5:53 pm 17:53 Sunny 68 20 43 6.1 40 40 S 9 15 30.06 1018 10 16 0.00 0.00
6:53 pm 18:53 Clear 63 17.2 44 6.7 50 50 SSE 8 13 30.06 1018 10 16 0.00 0.00
7:53 pm 19:53 Clear 59 15 44 6.7 58 58 SE 8 13 30.08 1019 10 16 0.00 0.00
8:53 pm 20:53 Clear 60 15.6 43 6.1 53 53 SSE 10 17 30.06 1018 10 16 0.00 0.00
9:53 pm 21:53 Clear 60 15.6 43 6.1 53 53 SE 13 20 30.04 1017 10 16 0.00 0.00
10:53 pm 22:53 Clear 59 15 44 6.7 58 58 SE 14 22 30.02 1017 10 16 0.00 0.00
11:53 pm 23:53 Clear 56 13.3 45 7.2 67 67 SE 10 17 30.00 1016 10 16 0.00 0.00

Powered by AerisWeather